Location: Newark
(40.3500°N, 15.2333°E)
Time: 04:44:30
(UTC+00:00)

Altair - Pass Details

Date: 18 January 2020
Orbit: 1502 x 1682 km, 47.2° (Epoch: 19 February)

Event Time Altitude Azimuth Distance (km) Brightness Sun altitude
Rises 12:49:11 0° 283° (WNW) 4,936 10.3 24.8°
Reaches altitude 10° 12:52:28 10° 287° (WNW) 3,944 9.8 24.5°
Maximum altitude 13:02:29 60° 7° (N) 1,860 8.0 23.6°
Drops below altitude 10° 13:12:15 10° 86° (E) 3,847 9.3 22.7°
Sets 13:15:24 0° 90° (E) 4,809 9.8 22.4°
